Tracking 24122 objects as of 9-Dec-2021
HD Live streaming from Space Station
objects crossing your sky now

CAPE 1

Track CAPE 1 now!
10-day predictions
CAPE 1 is classified as:


NORAD ID: 31130
Int'l Code: 2007-012P
Perigee: 642.8 km
Apogee: 778.6 km
Inclination: 98.3 °
Period: 98.8 minutes
Semi major axis: 7081 km
RCS: 0.0406 m2 (small)
Launch date: April 17, 2007
Source: United States (US)
Launch site: TYURATAM MISSILE AND SPACE COMPLEX (TTMTR)

Uplink (MHz):
Downlink (MHz): 435.245
Beacon (MHz):
Mode: 1200bps AFSK
Call sign: K5USL
Status: Active

aabbcc
Your satellite tracking list
Your tracking list is empty




NASA's NSSDC Master Catalog

Two Line Element Set (TLE):
1 31130U 07012P   21342.79357124  .00000199  00000-0  52286-4 0  9994
2 31130  98.2511 279.9556 0095874 163.3252 197.1136 14.56791878777335
Source of the keplerian elements: AFSPC